Location: Piotrkow Trybunalski
(51.4000°N, 19.6830°E)
Time: 17:43:52
(UTC+02:00)

A-11 Canister half - Pass Details

Date: 26 May 2024
Orbit: 1524 x 1684 km, 47.3° (Epoch: 18 September)

Event Time Altitude Azimuth Distance (km) Brightness Sun altitude
Rises 21:18:03 0° 232° (SW) 4,670 11.6 -5.1°
Reaches altitude 10° 21:21:09 10° 227° (SW) 3,698 11.1 -5.4°
Maximum altitude 21:30:04 52° 155° (SSE) 1,867 9.1 -6.4°
Drops below altitude 10° 21:39:15 10° 82° (E) 3,806 10.7 -7.4°
Sets 21:42:29 0° 78° (ENE) 4,815 11.3 -7.7°
